Theta_e
306 306 305 305 305 303 299 294 291 303 301 291 287 286 291 296 295 298 293 292 291 288 288 286 287 287 290 295 293 287 289 284 280 284 290 291 288 284 283 275 277 279 278 279
305 305 305 305 304 303 298 291 293 303 298 281 283 288 292 294 294 293 293 290 291 291 287 284 289 289 294 294 291 288 289 283 279 280 283 287 286 287 286 284 284 279 277 280
305 305 304 304 304 303 297 292 286 290 290 289 285 285 288 290 297 294 293 291 291 288 285 287 286 287 293 293 292 298 295 286 284 279 281 283 284 287 287 284 281 280 281 284
304 304 304 304 303 303 295 289 286 288 282 284 285 286 288 289 289 292 291 288 289 286 282 284 284 288 288 291 295 291 288 281 284 286 288 288 287 287 288 286 286 281 284 284
303 303 303 304 303 302 295 289 287 288 285 288 286 287 287 287 289 288 287 285 288 287 283 285 284 285 285 285 289 287 287 283 288 284 288 288 286 288 288 289 288 287 287 286
303 303 303 303 303 299 291 293 293 290 286 284 283 283 287 287 288 290 291 288 286 285 287 290 291 291 290 289 287 285 284 282 282 280 286 285 281 286 287 287 289 288 284 288
302 302 303 303 303 299 291 292 290 288 284 285 285 288 289 287 288 286 290 290 285 290 294 292 291 290 290 290 290 291 285 285 287 282 281 274 284 293 294 290 291 291 290 292
302 302 302 302 302 303 293 292 290 288 285 287 286 288 288 287 288 287 288 290 292 292 289 285 283 283 284 288 289 289 289 288 284 280 278 282 285 291 291 287 287 292 292 293
302 302 302 302 302 303 292 291 292 290 287 284 290 287 287 283 281 284 288 291 292 289 286 284 282 279 283 283 288 292 289 291 286 282 278 271 282 294 296 292 283 293 294 292
302 302 302 302 302 302 295 292 293 290 287 289 288 284 284 285 282 281 284 289 287 289 283 278 280 281 288 280 281 285 287 286 282 282 280 282 290 295 297 283 283 294 294 295
302 302 301 302 302 301 297 293 294 291 288 289 290 291 286 285 284 280 284 285 288 283 282 283 284 285 287 284 286 284 280 283 281 284 281 278 297 294 286 290 292 297 298 297
302 301 301 302 302 302 302 292 294 295 291 288 291 292 293 292 291 286 285 283 285 288 279 286 284 281 283 283 281 289 279 284 284 285 282 291 295 295 297 297 298 298 297 297
301 301 301 301 301 302 300 297 295 294 289 287 284 286 291 294 293 295 287 285 289 288 294 290 286 282 287 281 278 283 288 290 284 285 289 291 293 296 299 300 299 300 299 297
301 301 301 302 302 301 301 293 292 294 290 281 284 293 291 295 294 292 293 291 292 294 295 290 288 285 292 286 286 283 288 288 285 286 290 293 295 297 300 300 300 299 300 299
301 301 302 302 301 301 297 294 293 297 287 283 284 291 292 294 293 292 292 291 290 294 292 289 288 291 289 287 286 283 289 287 285 285 292 292 293 298 300 298 299 298 297 296
301 302 302 302 301 301 295 287 296 297 295 288 282 288 290 293 294 296 291 291 292 294 292 291 293 295 291 286 284 288 291 294 295 292 297 297 299 301 301 297 297 297 295 295
301 301 301 301 301 296 291 286 296 299 296 289 284 282 289 293 293 294 295 293 293 294 294 292 292 293 292 287 285 291 293 296 298 299 299 296 296 294 297 297 297 296 294 294
300 301 301 302 302 299 294 295 301 300 292 292 283 282 285 291 288 287 293 294 296 296 294 294 291 293 292 286 291 294 296 297 299 300 299 294 296 296 297 297 294 292 291 292
300 301 303 298 294 291 296 306 303 299 294 288 287 282 280 291 288 289 289 297 291 295 291 292 292 290 286 291 292 293 298 297 297 299 296 296 295 294 295 293 291 289 290 292
300 297 295 293 297 300 302 296 293 293 294 291 285 290 285 289 288 288 289 285 287 286 291 295 289 287 294 291 291 294 295 300 298 294 293 294 294 294 291 290 289 290 290 293
290 287 288 290 297 291 288 285 289 289 287 289 288 289 286 289 287 287 292 284 287 286 290 288 286 286 287 291 292 295 298 300 297 296 296 297 296 293 289 289 291 292 292 293
290 290 293 291 289 287 284 283 289 285 283 288 284 285 287 287 289 290 292 289 291 286 295 286 285 286 289 290 292 295 302 296 296 297 297 297 296 295 292 291 291 290 293 293
295 291 289 286 285 278 283 280 281 279 284 286 285 281 284 286 291 286 288 287 286 292 285 285 285 288 289 291 293 298 303 300 297 297 298 296 296 296 293 291 292 291 292 293
290 288 278 282 283 284 282 281 281 284 284 284 282 281 282 284 285 286 284 288 288 282 279 279 285 287 289 291 293 294 297 302 297 296 296 295 295 295 294 293 293 292 291 292
289 287 276 281 285 284 284 284 284 285 284 283 282 282 284 285 285 285 284 281 277 280 278 283 287 289 289 290 291 292 295 302 297 296 295 294 294 294 293 294 293 293 292 292
289 285 282 283 283 282 284 284 284 286 285 285 285 283 283 280 280 274 278 272 273 277 284 287 289 288 288 289 291 292 296 299 297 296 295 295 293 293 293 294 293 293 292 291
287 284 285 283 283 284 284 285 286 287 284 282 283 279 280 282 276 276 280 275 281 285 287 289 287 287 287 289 291 293 295 298 300 295 295 294 294 294 293 291 292 293 293 292
Wind_Speed
21 23 24 25 26 28 9 3 2 4 3 5 1 1 3 5 4 6 5 4 6 5 3 4 4 6 5 2 2 2 3 3 4 9 14 7 6 6 4 4 5 5 3 14
20 21 23 24 25 21 3 3 3 4 5 3 3 6 5 3 2 3 5 4 4 4 3 3 5 3 3 5 2 1 3 1 4 6 3 4 2 4 5 2 2 8 7 12
20 21 23 25 25 24 3 3 5 6 6 1 3 4 5 4 4 2 1 3 3 4 3 4 5 3 4 3 2 10 5 6 8 10 10 4 12 15 11 7 6 8 13 24
20 21 22 24 26 26 3 4 1 2 5 3 3 2 3 4 3 4 4 2 2 3 4 4 7 6 5 8 9 6 9 7 7 9 14 17 20 21 21 19 18 14 19 21
16 18 21 23 26 22 5 2 3 4 4 4 4 2 2 3 2 3 5 2 7 6 7 9 13 10 5 8 6 3 3 4 3 12 18 20 20 18 19 20 20 19 18 20
14 16 17 19 20 12 4 3 2 3 3 3 1 4 1 4 7 6 5 3 4 6 11 7 12 12 12 10 7 6 4 2 5 10 3 10 11 8 6 5 9 9 9 12
12 13 15 15 15 8 1 2 2 1 4 2 4 4 5 11 4 7 11 6 4 7 6 9 10 13 17 16 19 12 8 6 4 4 3 5 6 4 4 7 8 9 7 8
12 12 12 12 12 12 2 2 1 1 4 3 12 9 6 7 7 5 6 9 5 5 5 4 7 5 4 4 5 11 14 9 3 3 4 7 9 5 2 2 15 4 7 7
11 11 11 11 10 10 2 1 2 0 3 5 6 3 4 5 3 6 5 8 9 2 2 2 4 4 3 4 3 4 8 9 4 3 4 6 7 3 3 3 9 5 6 10
11 11 10 11 10 10 2 3 2 0 4 5 4 5 3 2 1 4 5 5 6 1 1 2 4 4 4 3 2 4 3 3 9 8 6 8 6 4 5 2 9 3 4 13
10 10 10 11 10 9 3 4 3 3 4 10 8 5 5 3 3 4 4 6 1 3 2 2 2 3 4 4 3 3 6 4 4 3 6 7 4 4 6 9 5 5 11 18
10 11 9 10 10 9 8 2 2 2 4 9 7 15 18 16 16 4 3 5 3 4 2 2 3 3 4 3 4 4 3 5 2 6 6 6 5 13 12 6 16 15 13 15
11 11 10 10 10 9 7 2 1 2 3 7 4 4 6 5 13 16 5 4 7 4 2 2 3 4 1 3 5 4 4 2 4 6 6 10 8 14 10 14 12 16 16 13
11 12 11 11 10 10 9 2 2 2 3 4 8 3 10 7 6 10 16 9 1 3 3 3 3 3 3 3 5 7 8 6 5 7 10 10 12 13 15 17 18 18 16 14
12 13 12 11 10 10 4 4 4 6 3 4 7 14 6 7 6 9 11 11 5 2 2 3 4 3 3 3 3 4 4 6 3 14 15 15 18 19 20 19 18 11 9 14
13 14 13 12 10 7 2 4 1 4 3 3 5 5 7 10 9 4 7 9 5 4 4 4 3 3 2 3 5 7 6 5 5 11 14 18 21 21 16 10 7 13 15 20
14 15 14 12 9 1 3 4 2 9 3 2 5 6 6 6 5 3 0 3 3 4 3 4 3 3 4 3 4 9 13 12 15 15 12 10 6 10 11 14 20 18 17 16
16 17 16 15 10 3 4 4 11 8 3 2 3 6 6 5 4 4 0 2 2 4 2 2 3 2 3 5 8 14 16 14 16 13 8 6 10 16 15 16 14 17 14 14
17 19 6 3 3 3 3 3 9 3 2 1 2 3 5 5 4 3 4 2 2 2 3 2 3 2 3 9 19 24 22 14 17 17 6 11 15 18 19 15 13 13 13 15
15 1 1 1 2 8 3 2 2 1 1 1 3 2 4 2 3 4 4 2 2 2 3 2 1 1 7 11 19 17 17 15 8 5 10 14 17 17 16 14 12 12 14 13
3 2 1 2 8 2 0 2 3 2 2 3 4 4 5 2 3 3 3 3 3 3 2 2 1 3 17 24 24 22 20 11 5 5 6 10 13 14 14 12 14 13 14 12
3 1 1 2 1 0 2 3 2 3 4 3 4 5 5 4 2 3 3 3 2 4 3 1 3 7 19 21 25 22 15 9 6 6 9 13 12 11 11 13 13 13 13 12
1 1 1 3 2 1 3 1 2 3 2 4 2 5 3 3 1 3 3 4 3 7 5 4 2 13 19 21 20 22 18 13 6 8 11 13 13 13 13 10 11 9 12 11
2 2 1 4 3 3 3 4 3 5 3 5 3 3 1 1 3 2 3 3 3 4 6 6 8 16 20 21 21 20 21 14 8 8 12 13 13 13 14 13 12 12 14 12
2 3 3 5 2 0 2 3 1 3 3 1 3 2 2 3 3 3 3 5 4 4 4 5 10 16 18 20 21 21 21 15 6 7 10 11 11 11 12 13 14 15 14 14
2 3 2 2 2 3 2 1 2 2 3 1 2 3 3 4 2 6 5 3 3 4 6 9 10 18 18 18 20 20 18 17 8 6 8 9 10 11 11 11 12 13 13 14
3 4 2 3 2 3 3 1 3 2 2 2 2 5 2 3 4 4 3 2 5 9 9 8 13 16 18 18 18 19 19 18 10 8 9 9 9 9 11 13 14 12 13 13
Wind_Direction
349 350 353 352 354 349 31 353 16 317 30 49 21 108 291 292 293 341 296 198 202 196 235 258 238 233 206 125 134 197 200 159 272 246 273 235 224 235 178 137 264 241 255 273
350 351 351 354 355 1 331 7 281 322 66 90 328 316 297 255 299 356 13 316 346 0 234 270 227 242 150 110 89 175 186 249 304 313 358 1 122 188 197 187 289 229 254 265
352 353 353 352 352 354 116 44 355 329 32 25 89 353 277 299 318 178 311 274 75 13 310 251 278 264 284 313 271 280 265 191 217 247 260 229 281 269 250 213 239 253 241 274
353 355 355 354 352 350 105 33 320 178 305 333 345 248 273 289 338 341 335 301 166 198 267 298 256 262 297 289 272 283 161 217 206 243 264 273 271 273 271 255 246 246 270 269
358 356 358 357 356 348 73 63 32 355 287 298 313 247 221 272 346 259 268 259 317 257 222 212 269 274 236 238 288 266 176 261 254 279 273 266 278 273 262 255 256 260 262 263
357 357 360 4 7 14 41 335 358 104 268 299 340 244 153 305 329 267 217 216 279 261 258 249 263 243 242 236 209 203 178 189 299 276 309 315 278 245 248 241 231 234 251 261
350 356 358 3 10 54 112 311 349 51 277 267 225 285 307 288 259 256 279 279 242 248 303 295 269 253 248 239 238 213 205 196 209 279 27 242 244 237 257 263 248 242 280 277
337 348 351 359 5 4 92 257 67 226 268 251 292 257 245 306 288 266 260 272 233 303 294 286 316 320 322 232 214 212 207 200 236 226 213 287 289 316 202 353 294 219 232 260
327 335 345 345 356 353 75 279 187 156 294 244 247 294 232 271 267 315 281 323 307 290 246 267 262 286 295 294 125 64 164 206 211 172 243 237 234 247 49 65 278 239 231 269
316 325 336 335 346 347 46 274 191 319 266 264 185 210 236 257 238 257 284 317 321 24 280 233 227 247 267 290 260 168 150 183 232 250 264 278 252 148 81 240 254 309 291 292
305 312 325 327 329 338 356 270 203 149 267 282 238 246 236 284 192 207 287 333 4 344 348 305 291 276 357 306 297 195 180 198 210 211 230 265 144 79 206 253 265 269 272 274
295 303 313 318 320 324 328 264 268 202 229 261 289 260 247 231 233 184 239 221 322 273 47 9 325 329 306 296 290 331 306 193 241 213 230 239 227 264 276 249 274 278 269 260
290 298 304 310 309 312 309 266 268 263 281 288 327 252 261 219 223 218 217 242 200 240 109 241 259 255 260 272 262 298 295 262 245 331 267 269 283 285 298 288 260 274 268 255
287 294 298 303 303 309 308 190 210 228 284 286 284 301 298 273 207 183 204 219 197 158 165 207 240 263 225 243 256 245 251 322 259 254 281 304 270 295 287 288 290 286 276 272
286 291 294 300 305 312 313 227 211 206 176 284 292 309 251 286 258 214 202 214 208 170 217 218 219 235 259 262 269 252 207 220 247 289 307 288 280 291 291 294 291 296 295 291
288 292 297 298 302 323 7 8 62 182 169 297 304 281 290 309 314 285 216 191 179 202 189 218 243 241 186 265 262 242 238 267 249 276 271 285 281 280 289 292 299 308 306 297
288 291 292 289 286 162 206 191 136 165 115 268 295 303 282 299 306 314 107 144 167 160 231 217 229 218 182 247 266 290 308 291 284 279 285 302 324 318 313 311 310 314 296 290
292 293 291 283 256 238 261 252 243 197 197 229 295 280 328 358 310 321 21 185 195 201 219 195 207 177 215 262 278 292 296 299 293 302 318 303 314 321 302 308 323 306 306 298
298 299 286 91 92 165 230 170 119 173 164 284 288 297 296 348 292 281 309 239 263 356 236 226 146 171 226 327 335 321 313 301 293 303 302 328 324 319 314 336 324 316 308 312
302 129 173 147 148 341 99 23 174 133 189 127 255 276 265 12 289 299 307 347 253 263 234 120 216 112 10 321 316 306 310 310 293 323 326 320 322 328 340 341 323 314 316 319
39 43 217 299 317 95 121 202 218 151 230 210 241 238 279 267 267 280 247 291 256 268 84 230 127 33 343 333 329 330 319 302 319 317 306 311 321 341 338 332 326 335 325 340
182 169 285 326 20 120 241 222 141 195 226 215 217 249 208 268 208 260 268 273 264 256 346 128 43 348 333 334 330 315 316 317 325 335 314 328 337 354 352 336 342 344 344 1
120 113 28 87 199 65 230 344 334 334 248 239 243 291 223 330 293 314 304 293 324 305 14 45 63 325 333 336 330 338 346 351 352 343 332 346 350 356 12 351 1 350 3 11
179 169 340 184 212 229 194 181 204 238 221 273 236 251 218 341 9 315 296 339 319 39 18 356 335 332 328 332 337 339 336 340 338 347 337 355 359 358 358 359 7 17 23 14
197 167 216 211 229 183 212 217 283 269 236 328 340 32 74 5 329 16 355 4 41 18 11 308 313 327 331 332 332 334 336 343 339 342 347 359 1 2 359 6 12 14 23 29
223 226 244 246 80 342 354 343 291 277 310 66 54 67 53 28 6 41 11 35 16 311 319 311 326 327 331 330 329 328 334 334 333 340 344 357 11 7 1 7 17 22 31 30
211 241 196 154 149 190 241 222 263 298 50 41 60 55 14 342 46 33 42 12 308 313 311 330 326 324 321 324 326 327 332 332 336 351 360 5 9 11 21 16 9 18 31 35